Track STARLINK-1299 now! 10-day predictions STARLINK-1299 is classified as:
1 45418U 20019BL 22175.33625269 .00013040 00000-0 89681-3 0 9990 2 45418 52.9980 148.0946 0002390 47.4628 312.6562 15.06226862124981